Eagle River, WI

8:20 PM CDT on April 30, 2017 (GMT -0500)
Eagle River Union

Weather History for KEGV - May, 2014

Change the Weather History Date:

Thursday, May 29, 2014

  Actual Average Record
Temperature  
Mean Temperature 62 °F -  
Max Temperature 83 °F 69 °F 87 °F (2006)
Min Temperature 43 °F 45 °F 33 °F (1993)
Degree Days  
Heating Degree Days 2    
Growing Degree Days 12 (Base 50)    
Moisture  
Dew Point 44 °F    
Average Humidity 56    
Maximum Humidity 100    
Minimum Humidity 18    
Precipitation  
Precipitation 0.00 in - - ()
Sea Level Pressure  
Sea Level Pressure 30.15 in    
Wind  
Wind Speed 1 mph (ESE)    
Max Wind Speed 6 mph    
Max Gust Speed -    
Visibility 9 miles    
Events Fog    
Averages and records for this station are not official NWS values.
T = Trace of Precipitation, MM = Missing Value Source: NWS Daily Summary

Daily Weather History Graph

Daily Weather History Graph

Search for Another Location

Airport or City:

Trip Planner

Search our weather history database for the weather conditions in past years. The results will help you decide how hot, cold, wet, or windy it might be!

Date:

Astronomy

May. 29, 2014 Rise Set
Actual Time 5:12 AM CDT 8:37 PM CDT
Civil Twilight 4:35 AM CDT 9:14 PM CDT
Nautical Twilight 3:46 AM CDT 10:03 PM CDT
Astronomical Twilight 2:44 AM CDT 11:06 PM CDT
Moon 6:08 AM CDT (5/29) 9:24 PM CDT (5/29)
Length of Visible Light 16h 39m
Length of Day
15h 25m
New Moon, 1% of the Moon is Illuminated
May 29
New Moon
Jun 5
First Quarter
Jun 12
Full
Jun 19
Last Quarter
Jun 27
New

Hourly Weather History & Observations

Time (CDT) Temp. Dew Point Humidity Pressure Visibility Wind Dir Wind Speed Gust Speed Precip Events Conditions
12:10 AM 52.2 °F 45.9 °F 79% 30.14 in 10.0 mi Calm Calm - N/A   Clear
12:30 AM 50.9 °F 45.7 °F 82% 30.14 in 10.0 mi Calm Calm - N/A   Clear
12:50 AM 50.9 °F 46.2 °F 84% 30.14 in 10.0 mi Calm Calm - N/A   Clear
1:10 AM 49.6 °F 46.0 °F 87% 30.14 in 10.0 mi Calm Calm - N/A   Clear
1:30 AM 48.6 °F 47.5 °F 96% 30.15 in 10.0 mi Calm Calm - N/A   Clear
1:50 AM 47.1 °F 46.4 °F 97% 30.14 in 10.0 mi Calm Calm - N/A   Clear
2:10 AM 46.6 °F 46.6 °F 100% 30.14 in 2.0 mi Calm Calm - N/A   Clear
2:50 AM 46.0 °F 46.0 °F 100% 30.15 in 10.0 mi Calm Calm - N/A   Clear
3:10 AM 46.4 °F 46.4 °F 100% 30.15 in 10.0 mi Calm Calm - N/A   Clear
3:30 AM 45.5 °F 45.5 °F 100% 30.14 in 2.0 mi Calm Calm - N/A   Clear
3:50 AM 45.3 °F 45.3 °F 100% 30.14 in 2.0 mi Calm Calm - N/A   Clear
4:10 AM 44.8 °F 44.8 °F 100% 30.15 in 1.0 mi Calm Calm - N/A   Overcast
4:30 AM 44.1 °F 44.1 °F 100% 30.15 in 0.8 mi Calm Calm - N/A   Overcast
4:50 AM 44.1 °F 44.1 °F 100% 30.15 in 0.5 mi Calm Calm - N/A Fog Fog
5:10 AM 43.0 °F 43.0 °F 100% 30.15 in 0.2 mi Calm Calm - N/A Fog Fog
5:50 AM 43.7 °F 43.7 °F 100% 30.17 in 7.0 mi Calm Calm - N/A   Scattered Clouds
6:10 AM 45.9 °F 45.9 °F 100% 30.18 in 10.0 mi Calm Calm - N/A   Clear
6:30 AM 48.9 °F 48.9 °F 100% 30.18 in 10.0 mi Calm Calm - N/A   Clear
6:50 AM 52.0 °F 50.2 °F 94% 30.18 in 10.0 mi Calm Calm - N/A   Clear
7:10 AM 54.7 °F 49.3 °F 82% 30.18 in 10.0 mi Calm Calm - N/A   Clear
7:30 AM 56.3 °F 48.7 °F 76% 30.18 in 10.0 mi Calm Calm - N/A   Clear
7:50 AM 58.5 °F 47.7 °F 67% 30.18 in 10.0 mi Calm Calm - N/A   Clear
8:10 AM 60.6 °F 48.0 °F 63% 30.18 in 10.0 mi Calm Calm - N/A   Clear
8:30 AM 62.1 °F 47.5 °F 59% 30.17 in 10.0 mi Calm Calm - N/A   Clear
8:50 AM 63.1 °F 48.0 °F 58% 30.18 in 10.0 mi Calm Calm - N/A   Clear
9:10 AM 64.9 °F 48.4 °F 55% 30.18 in 10.0 mi SW 3.5 mph - N/A   Clear
9:30 AM 66.7 °F 47.7 °F 50% 30.17 in 10.0 mi Calm Calm - N/A   Clear
9:50 AM 68.5 °F 47.5 °F 47% 30.17 in 10.0 mi Calm Calm - N/A   Clear
10:10 AM 70.0 °F 45.9 °F 42% 30.17 in 10.0 mi NE 3.5 mph - N/A   Clear
10:30 AM 71.4 °F 43.2 °F 36% 30.17 in 10.0 mi East 3.5 mph - N/A   Clear
11:10 AM 72.5 °F 38.1 °F 29% 30.17 in 10.0 mi ENE 4.6 mph - N/A   Clear
11:30 AM 73.2 °F 38.8 °F 29% 30.17 in 10.0 mi East 4.6 mph - N/A   Clear
11:50 AM 75.6 °F 41.9 °F 30% 30.15 in 10.0 mi SSE 5.8 mph - N/A   Clear
12:10 PM 75.9 °F 41.7 °F 29% 30.16 in 10.0 mi East 5.8 mph - N/A   Clear
12:30 PM 77.0 °F 38.3 °F 25% 30.15 in 10.0 mi NNE 3.5 mph - N/A   Clear
12:50 PM 78.1 °F 39.7 °F 25% 30.16 in 10.0 mi SE 4.6 mph - N/A   Clear
1:10 PM 77.7 °F 39.6 °F 25% 30.15 in 10.0 mi Calm Calm - N/A   Clear
1:30 PM 79.5 °F 40.6 °F 25% 30.14 in 10.0 mi SW 5.8 mph - N/A   Clear
1:50 PM 80.6 °F 40.5 °F 24% 30.14 in 10.0 mi East 5.8 mph - N/A   Clear
2:10 PM 81.1 °F 40.8 °F 24% 30.14 in 10.0 mi NE 5.8 mph - N/A   Clear
2:30 PM 81.7 °F 39.0 °F 22% 30.13 in 10.0 mi Calm Calm - N/A   Clear
2:50 PM 81.7 °F 39.2 °F 22% 30.13 in 10.0 mi WSW 4.6 mph - N/A   Clear
3:10 PM 82.4 °F 38.5 °F 21% 30.13 in 10.0 mi ESE 5.8 mph - N/A   Clear
3:50 PM 82.2 °F 36.7 °F 20% 30.13 in 10.0 mi Calm Calm - N/A   Clear
4:50 PM 82.8 °F 36.9 °F 19% 30.12 in 10.0 mi Calm Calm - N/A   Clear
5:10 PM 82.4 °F 36.7 °F 19% 30.12 in 10.0 mi Calm Calm - N/A   Clear
5:30 PM 82.4 °F 36.7 °F 19% 30.12 in 10.0 mi Calm Calm - N/A   Clear
5:50 PM 82.2 °F 35.1 °F 18% 30.12 in 10.0 mi Calm Calm - N/A   Clear
6:10 PM 82.2 °F 37.9 °F 21% 30.12 in 10.0 mi Calm Calm - N/A   Clear
6:30 PM 81.7 °F 38.8 °F 22% 30.11 in 10.0 mi SSE 4.6 mph - N/A   Clear
6:50 PM 81.0 °F 40.1 °F 23% 30.11 in 10.0 mi South 4.6 mph - N/A   Clear
7:10 PM 79.9 °F 39.7 °F 24% 30.11 in 10.0 mi SSE 4.6 mph - N/A   Clear
7:50 PM 77.9 °F 39.7 °F 25% 30.12 in 10.0 mi SSE 4.6 mph - N/A   Clear
8:10 PM 75.7 °F 41.0 °F 29% 30.13 in 10.0 mi Calm Calm - N/A   Clear
8:30 PM 73.4 °F 41.5 °F 32% 30.13 in 10.0 mi Calm Calm - N/A   Clear
9:10 PM 69.6 °F 44.1 °F 40% 30.14 in 10.0 mi Calm Calm - N/A   Clear
9:30 PM 68.4 °F 44.6 °F 42% 30.14 in 10.0 mi Calm Calm - N/A   Clear
9:50 PM 62.1 °F 48.6 °F 61% 30.15 in 10.0 mi Calm Calm - N/A   Clear
10:10 PM 65.3 °F 46.0 °F 50% 30.15 in 10.0 mi Calm Calm - N/A   Clear
10:30 PM 61.2 °F 48.9 °F 64% 30.15 in 10.0 mi Calm Calm - N/A   Clear
11:10 PM 60.1 °F 49.8 °F 69% 30.16 in 10.0 mi Calm Calm - N/A   Clear
11:30 PM 58.3 °F 49.3 °F 72% 30.16 in 10.0 mi Calm Calm - N/A   Clear
11:50 PM 57.6 °F 49.5 °F 74% 30.15 in 10.0 mi Calm Calm - N/A   Clear